Regional Weather Roundup
Issued by NWS Newport/Morehead, NC

Current Version | Previous Version | Text Only | Print | Product List | Glossary On
Versions: 1 2 3 4 5 6 7 8 9 10 11 12 13 14 15 16 17 18 19 20 21 22 23 24 25 26 27 28 29 30 31 32 33 34 35 36 37 38 39 40 41 42 43 44 45 46 47 48 49 50
000
ASUS42 KMHX 291413
RWRMHX
WEATHER ROUNDUP FOR EASTERN NORTH CAROLINA
NATIONAL WEATHER SERVICE NEWPORT/MOREHEAD CITY NC
1000 AM EDT FRI APR 29 2016

NOTE: "FAIR" INDICATES FEW OR NO CLOUDS BELOW 12,000 FEET
WITH NO SIGNIFICANT WEATHER AND/OR OBSTRUCTIONS TO VISIBILITY

NCZ015>017-031-032-045>047-102-103-291500-
NORTH COAST

CITY           SKY/WX    TMP DP  RH WIND       PRES   REMARKS
EDENTON        CLOUDY    58  58 100 NE7       30.01R FOG
ELIZABETH CITY CLOUDY    56  54  93 NE13      30.00S
KITTY HAWK     CLOUDY    56  56 100 N7        29.99R FOG
MANTEO         NOT AVBL

$$

NCZ045>047-081-094-103-104-291500-
CENTRAL COAST

CITY           SKY/WX    TMP DP  RH WIND       PRES   REMARKS
FRISCO         CLOUDY    61  60  97 N10G20    29.98R
SWANQUARTER    NOT AVBL

$$

NCZ095-097-098-100-101-291500-
SOUTHERN COAST

CITY           SKY/WX    TMP DP  RH WIND       PRES   REMARKS
BEAUFORT       CLOUDY    65  63  93 N9        29.97R FOG
CEDAR ISLAND   NOT AVBL
JACKSONVILLE   CLOUDY    68  62  81 N13       29.96R
PINEY ISLAND   NOT AVBL
WILMINGTON     PTSUNNY   73  65  75 N13       29.96R


$$

NCZ011>013-027>030-043-044-078>080-089-090>093-098-291500-
COASTAL PLAIN

CITY           SKY/WX    TMP DP  RH WIND       PRES   REMARKS
AHOSKIE        DRIZZLE   55  54  97 N6        30.02R
CLINTON        CLOUDY    66  64  92 N8        29.99R
ELIZABETHTOWN  SUNNY     72  64  75 CALM      29.98S
GOLDSBORO      CLOUDY    61  61 100 VRB7      29.98R
GREENVILLE     CLOUDY    59  59 100 NE9       30.02R
HAVELOCK       CLOUDY    64  62  93 N14       29.98R FOG
KENANSVILLE    CLOUDY    64  62  95 N8        30.00R FOG
KINSTON          N/A     61  61 100 N8        30.01R FOG
NEW BERN       CLOUDY    63  61  93 NE10      29.99R FOG
RICHLANDS      CLOUDY    66  63  90 N7        29.98R
ROCKY MOUNT    CLOUDY    59  58  96 N7        30.01R
WASHINGTON     CLOUDY    59  58  96 NE8       30.00R
WHITEVILLE     CLOUDY    69  64  84 CALM      29.97S

$$

AMZ130-135-150-152-154-156-158-170-250-252-270-ANZ085-086-088-633-658-670-291500-
MARINE OBSERVATIONS

STATION/POSITION TIME  TEMP    WIND        PRES    WAVE   SWELL
                       AIR SEA DIR/SP/G            HT/PER HT/PER
                 (UTC) (F)     (DEG/KT/KT) (MB)    (FT/S) (FT/S)
CHESAPEAKE LIGHT 1300   52      20/ 20/ 20 1016.0
64 E VA BEACH    1350   54 54   10/  8/ 10 1014.7    4/ 6   3/ 6
DUCK             1300   54 66   10/ 14/ 18 1014.7
2 E DUCK         1311      58                N/A     5/ 5
OREGON INLET     1300   56 63  360/ 13/ 18 1014.8
13E OREGON INLT  1400      59                N/A     4/ 5   2/ 7
HATTERAS CG      1300   61 69  360/ 17/ 19 1014.0
DIAMOND BUOY     1350   61 69  360/ 17/ 19 1014.2    3/ 6   2/ 8
CAPE LOOKOUT     1300   66      10/  8/ 10 1013.6
BEAUFORT LAB     1300   66 68  360/  8/ 10 1013.1
30 SE NEW RVR IN 1325      67                N/A     3/ 6
27 SE WRIGHTSVLE 1308   69 69  330/  8/ 12 1017.1
5 SE WRIGHTSVLE  1308   69 67  360/  6/  8 1014.2
225 S CAPE HAT   1350   71 71  200/ 14/ 16 1014.8    3/ 9   2/ 9
41 SE CHARLESTON 1350   72 72  280/ 12/ 14 1014.1    3/ 5   2/ 6

$$



USA.gov is the U.S. government's official web portal to all federal, state and local government web resources and services.